Regional Weather Roundup
Issued by NWS

Home | Current Version | Previous Version | Graphics & Text | Print | Product List | Glossary On
Versions: 1 2 3 4 5 6 7 8 9 10 11 12 13 14 15 16 17 18 19 20 21 22 23 24 25 26 27 28 29 30 31 32 33 34 35 36 37 38 39 40 41 42 43 44 45 46 47 48 49 50
000
ASUS43 KTOP 292208
RWRKS

WEATHER ROUNDUP FOR KANSAS
NATIONAL WEATHER SERVICE GOODLAND KS
500 PM CDT WED OCT 29 2014

NOTE:  "FAIR" INDICATES FEW OR NO CLOUDS BELOW 12,000 FEET WITH NO
SIGNIFICANT WEATHER AND/OR OBSTRUCTIONS TO VISIBILITY.

KSZ001>006-013>018-027>032-041>047-292300-
NORTHWEST KANSAS

CITY           SKY/WX    TMP DP  RH WIND       PRES   REMARKS
GOODLAND       SUNNY     72  17  12 VRB3      30.04F
HAYS           SUNNY     73  39  29 SW14      30.04S
HILL CITY      SUNNY     73  39  29 S12       30.02F
RUSSELL        SUNNY     72  38  29 SW16      30.03F
$$

KSZ061>065-074>080-084>089-292300-
SOUTHWEST KANSAS

CITY           SKY/WX    TMP DP  RH WIND       PRES   REMARKS
DODGE CITY     SUNNY     71  37  28 S18G25    30.06F
ELKHART          N/A    N/A N/A N/A MISG        N/A
GARDEN CITY    SUNNY     72  39  30 SW14      30.05F
GREAT BEND     SUNNY     72  37  28 S16G23    30.06F
LIBERAL        SUNNY     73  39  29 S17       30.09S
PRATT          SUNNY     70  28  21 S12       30.09F
$$

KSZ066>073-081>083-090>101-292300-
SOUTHEAST KANSAS

CITY           SKY/WX    TMP DP  RH WIND       PRES   REMARKS
CHANUTE        SUNNY     65  37  35 S6        30.15F
COFFEYVILLE    SUNNY     68  39  34 S7        30.14F
HUTCHINSON     SUNNY     72  33  24 S16       30.09F
MEDICINE LODGE   N/A     72  28  19 S15       30.09F
NEWTON         SUNNY     68  34  28 SW10      30.13S
PARSONS        SUNNY     68  35  29 VRB3      30.16F
WICHITA INTL   SUNNY     71  30  21 S16       30.10F
WICHITA JABRA  SUNNY     69  32  25 SW12      30.10F
WICHITA MCCONL SUNNY     71  30  22 S13G18    30.11F
WINFIELD       SUNNY     70  36  28 SW10      30.13F
$$

KSZ007>012-019>026-033>040-048>060-102>105-292300-
NORTHEAST KANSAS

CITY           SKY/WX    TMP DP  RH WIND       PRES   REMARKS
CONCORDIA      SUNNY     65  36  34 S12       30.07F
EMPORIA        SUNNY     65  34  31 S6        30.12F
LAWRENCE       SUNNY     61  34  36 S6        30.15F
MANHATTAN      SUNNY     66  34  30 SE10      30.10F
MARYSVILLE     SUNNY     61  32  33 S7        30.10F
OLATHE IND     SUNNY     61  32  33 CALM      30.16F
OLATHE EXE     SUNNY     61  32  33 S5        30.14F
SALINA         SUNNY     71  37  28 SW15      30.08F
TOPEKA BILLARD SUNNY     63  33  32 SE9       30.14F
TOPEKA FORBES  SUNNY     63  33  32 S9        30.13F
$$



USA.gov is the U.S. government's official web portal to all federal, state and local government web resources and services.